Colorado Springs, CO

1:25 AM MST on February 26, 2017 (GMT -0700)
Usaf Academy

Weather History for KAFF - February, 2013

Change the Weather History Date:

Sunday, February 3, 2013

  Actual Average Record
Temperature  
Mean Temperature 32 °F -  
Max Temperature 48 °F 39 °F 57 °F (2015)
Min Temperature 16 °F 18 °F -16 °F (2011)
Degree Days  
Heating Degree Days 33    
Moisture  
Dew Point 9 °F    
Average Humidity 44    
Maximum Humidity 75    
Minimum Humidity 16    
Precipitation  
Precipitation 0.00 in - - ()
Sea Level Pressure  
Sea Level Pressure 30.10 in    
Wind  
Wind Speed 7 mph (NNW)    
Max Wind Speed 13 mph    
Max Gust Speed -    
Visibility 10 miles    
Events      
Averages and records for this station are not official NWS values.
T = Trace of Precipitation, MM = Missing Value Source: NWS Daily Summary

Daily Weather History Graph

Daily Weather History Graph

Search for Another Location

Airport or City:

Trip Planner

Search our weather history database for the weather conditions in past years. The results will help you decide how hot, cold, wet, or windy it might be!

Date:

Astronomy

Feb. 03, 2013 Rise Set
Actual Time 7:03 AM MST 5:23 PM MST
Civil Twilight 6:35 AM MST 5:51 PM MST
Nautical Twilight 6:03 AM MST 6:23 PM MST
Astronomical Twilight 5:32 AM MST 6:54 PM MST
Moon 12:33 AM MST (2/3) 11:02 AM MST (2/3)
Length of Visible Light 11h 15m
Length of Day
10h 19m
Waning Gibbous, 48% of the Moon is Illuminated
Feb 3
Waning Gibbous
Feb 10
New
Feb 17
First Quarter
Feb 25
Full
Mar 4
Last Quarter

Hourly Weather History & Observations

Time (MST) Temp. Windchill Dew Point Humidity Pressure Visibility Wind Dir Wind Speed Gust Speed Precip Events Conditions
12:58 AM 18.7 °F 8.6 °F 10.2 °F 70% 30.33 in 10.0 mi North 8.1 mph - N/A   Clear
1:58 AM 17.4 °F 10.4 °F 9.7 °F 72% 30.29 in 10.0 mi North 4.6 mph - N/A   Clear
2:58 AM 16.3 °F 10.8 °F 9.7 °F 75% 30.27 in 10.0 mi NNW 3.5 mph - N/A   Clear
3:58 AM 18.7 °F 10.6 °F 10.4 °F 70% 30.23 in 10.0 mi North 5.8 mph - N/A   Clear
4:58 AM 20.1 °F 15.2 °F 11.3 °F 69% 30.24 in 10.0 mi NW 3.5 mph - N/A   Clear
5:58 AM 21.0 °F 13.4 °F 12.7 °F 70% 30.26 in 10.0 mi NNW 5.8 mph - N/A   Scattered Clouds
6:58 AM 19.0 °F 8.2 °F 11.5 °F 72% 30.26 in 10.0 mi North 9.2 mph - N/A   Scattered Clouds
7:58 AM 19.8 °F 8.3 °F 12.2 °F 72% 30.26 in 10.0 mi North 10.4 mph - N/A   Clear
8:58 AM 28.0 °F 21.7 °F 14.9 °F 58% 30.20 in 10.0 mi North 5.8 mph - N/A   Clear
9:58 AM 36.0 °F - 14.0 °F 41% 30.15 in 10.0 mi Variable 2.3 mph - N/A   Clear
10:58 AM 44.1 °F 40.1 °F 13.1 °F 29% 30.07 in 10.0 mi South 6.9 mph - N/A   Clear
11:58 AM 48.2 °F - 6.4 °F 18% 30.03 in 10.0 mi South 8.1 mph - N/A   Partly Cloudy
12:58 PM 48.7 °F - 3.2 °F 16% 29.98 in 10.0 mi SSE 10.4 mph - N/A   Scattered Clouds
1:58 PM 48.0 °F - 8.6 °F 20% 29.96 in 10.0 mi SE 6.9 mph - N/A   Partly Cloudy
2:58 PM 47.3 °F - 10.4 °F 23% 29.96 in 10.0 mi South 8.1 mph - N/A   Clear
3:58 PM 46.0 °F 44.8 °F 13.1 °F 27% 29.94 in 10.0 mi SSE 3.5 mph - N/A   Clear
4:58 PM 43.3 °F - 13.8 °F 30% 29.96 in 10.0 mi West 2.3 mph - N/A   Clear
5:58 PM 39.7 °F 33.7 °F 13.8 °F 35% 29.97 in 10.0 mi North 9.2 mph - N/A   Clear
6:58 PM 37.8 °F 32.5 °F 5.2 °F 26% 30.01 in 10.0 mi North 6.9 mph - N/A   Clear
7:58 PM 33.3 °F 27.1 °F 3.9 °F 29% 30.02 in 10.0 mi North 6.9 mph - N/A   Clear
8:58 PM 30.7 °F 23.3 °F 5.2 °F 34% 30.00 in 10.0 mi North 8.1 mph - N/A   Clear
9:58 PM 28.4 °F 18.0 °F 4.3 °F 36% 29.99 in 10.0 mi NNW 12.7 mph - N/A   Clear
10:58 PM 27.7 °F 17.6 °F 4.3 °F 37% 29.95 in 10.0 mi NNW 11.5 mph - N/A   Clear
11:58 PM 25.5 °F 16.2 °F 3.2 °F 38% 29.95 in 10.0 mi NNW 9.2 mph - N/A   Clear